Location: Stamford Observatory
(41.1241°N, 73.5498°W)
Time: 23:21:50
(UTC-04:00)

IRS-P3 - Visible Passes

Search period start: 03 July 2015 00:00
Search period end: 13 July 2015 00:00
Orbit: 815 x 819 km, 98.7° (Epoch: 03 July)

Date Brightness Start Highest point End Pass type
(mag) Time Alt. Az. Time Alt. Az. Time Alt. Az.
03 Jul 5.6 01:39:29 10° NE 01:43:52 26° E 01:45:10 24° ESE visible
03 Jul 4.8 03:19:04 10° N 03:24:04 40° WNW 03:26:28 26° WSW visible
04 Jul 6.1 01:18:48 10° NE 01:22:00 16° E 01:23:17 15° ESE visible
04 Jul 4.3 02:57:16 10° N 03:02:34 63° WNW 03:04:34 37° SW visible
05 Jul 4.1 02:35:39 10° NNE 02:41:02 85° E 02:42:42 46° S visible
05 Jul 6.2 04:17:45 10° NNW 04:20:26 14° WNW 04:22:52 10° W visible
06 Jul 4.5 02:14:10 10° NNE 02:19:25 54° E 02:20:50 42° SSE visible
06 Jul 5.7 03:55:10 10° NNW 03:59:06 21° WNW 04:02:07 13° WSW visible
07 Jul 5.2 01:52:53 10° NNE 01:57:43 34° E 01:58:57 31° ESE visible
07 Jul 5.2 03:33:02 10° N 03:37:43 31° WNW 03:40:15 21° WSW visible
08 Jul 5.7 01:31:54 10° NE 01:35:56 22° E 01:37:04 21° ESE visible
08 Jul 4.6 03:11:08 10° N 03:16:15 47° WNW 03:18:22 31° WSW visible
09 Jul 6.3 01:11:31 10° ENE 01:14:02 14° E 01:15:11 13° ESE visible
09 Jul 4.1 02:49:23 10° N 02:54:45 73° WNW 02:56:28 44° SW visible
09 Jul 6.4 04:33:15 10° NW 04:33:59 10° WNW 04:34:22 10° WNW visible
10 Jul 4.2 02:27:49 10° NNE 02:33:11 73° ESE 02:34:36 49° S visible
10 Jul 6.0 04:09:27 10° NNW 04:12:41 16° WNW 04:15:42 10° W visible
11 Jul 4.7 02:06:25 10° NNE 02:11:32 46° E 02:12:43 40° SE visible
11 Jul 5.6 03:47:05 10° NNW 03:51:20 24° WNW 03:54:00 16° WSW visible
12 Jul 5.4 01:45:13 10° NE 01:49:48 29° E 01:50:49 28° ESE visible
12 Jul 5.0 03:25:02 10° N 03:29:55 36° WNW 03:32:07 25° WSW visible
